Participated 2 times
Between 1908 and 1913
Eugène Platteau, Belgium
Tour de France 2026 starts from Barcelona, Spain in

Stats and Facts from
Tour de France.

2026   2025   2024   2023  2022  2021  2020  2019   2018  2017   2016   2015  2014  2013   2012   2011  2010   2009   2008   2007   2006   2005   2004   2003   2002   2001   2000   1999   1998   1997  1996   1995   1994   1993   1992  1991   1990   1989   1988   1987   1986   1985   1984   1983  1982  1981   1980   1979  1978  1977   1976  1975  1974  1973   1972   1971   1970  1969   1968   1967   1966   1965  1964  1963   1962   1961   1960   1959   1958   1957  1956   1955   1954   1953   1952  1951  1950  1949   1948  1947  1939   1938   1937   1936   1935   1934   1933  1932   1931   1930  1929   1928   1927   1926  1925  1924  1923   1922   1921   1920   1919  1914   1913   1912   1911   1910  1909   1908   1907   1906  1905  1904   1903 

Tourstats
Sitemap

After stage 21 - 2025:
 16451 starters.
  5463 different riders.
  689 teams.
  2398 stages.
  470 restdays.
  466506.50 km.
  5925 abandoned riders.

Click map for 1951 route.
Facts from Tour de France 1951 Additional info and images from 1951.
  |   Stages.  |   Stage winners.  |   Days in jerseys.  |   Teams.  |   All riders.  |   All riders by age.  |   All riders from.  |  

  |   Rookies.  |   Withdrawls.  |   Average speed.  |   GC.  |   Polka  |   Green  |   White  |   Summits. (In tour)  |   Miscellaneous.  |  

Stage 22 on July 27th. 1951
Pick a stage:  1  2  3  4  5  6  7  8  9  10  11  12  13  14  15  16  17  18  19  20  21  22  23  24  

After stage 22:    Hugo Koblet  
  Aix-les-BainsGenève | Dist: 97.00km. | Winner: Hugo Koblet

Podium

Average speed for all riders in stage:  33,226 km./hr.

1
 Hugo Koblet  Switzerland02h 39' 45"=36,432  km/h

2
 Roger Decock  Belgium02h 44' 35"+  00:04:50 =35,362  km/h

3
 Pierre Barbotin  France02h 44' 44"+  00:04:59 =35,330  km/h

4  Fiorenzo Magni  Italy02h 45' 28"+  00:05:43 =35,173  km/h

5  Stan Ockers  Belgium02h 46' 10"+  00:06:25 =35,025  km/h

6  Fausto Coppi  Italy02h 47' 13"+  00:07:28 =34,805  km/h

7  Gino Bartali  Italy02h 47' 50"+  00:08:05 =34,677  km/h

8  Nello Lauredi  France02h 47' 52"+  00:08:07 =34,670  km/h

9  Lucien Lazarides  France02h 50' 18"+  00:10:33 =34,175  km/h

10  Joseph Morvan  Ouest-Sud Ouest02h 51' 11"+  00:11:26 =33,999  km/h

11  Giuseppe Mirando  Est-Sud Est02h 51' 18"+  00:11:33 =33,975  km/h

12  Jean Diederich  Luxembourg02h 51' 42"+  00:11:57 =33,896  km/h

13  Raphaël Geminiani  France02h 51' 43"+  00:11:58 =33,893  km/h

13  Serifano Biagioni  Italy02h 51' 43"+  00:11:58 =33,893  km/h

15  Gilbert Bauvin  Est-Sud Est02h 51' 55"+  00:12:10 =33,854  km/h

16  Leo Weilenmann  Switzerland02h 52' 20"+  00:12:35 =33,772  km/h

17  Louison Bobet  France02h 52' 33"+  00:12:48 =33,729  km/h

18  Pierre Cogan  Ouest-Sud Ouest02h 52' 41"+  00:12:56 =33,703  km/h

19  Jean-Baptiste Dotto  Est-Sud Est02h 52' 46"+  00:13:01 =33,687  km/h

20  Bernardo Ruíz  Spain02h 52' 52"+  00:13:07 =33,668  km/h

21  Roger Walkowiak  Ouest-Sud Ouest02h 52' 56"+  00:13:11 =33,655  km/h

22  Georges Meunier  Ouest-Sud Ouest02h 53' 03"+  00:13:18 =33,632  km/h

23  Hilaire Couvreur  Belgium02h 53' 09"+  00:13:24 =33,612  km/h

24  Marcel De Mulder  Belgium02h 53' 30"+  00:13:45 =33,545  km/h

24  Andrea Carrea  Italy02h 53' 30"+  00:13:45 =33,545  km/h

26  Hans Sommer  Switzerland02h 53' 38"+  00:13:53 =33,519  km/h

27  Ettore Milano  Italy02h 53' 46"+  00:14:01 =33,493  km/h

28  Roger Buchonnet  Est-Sud Est02h 53' 50"+  00:14:05 =33,480  km/h

29  Marcel Verschueren  Belgium02h 54' 17"+  00:14:32 =33,394  km/h

30  Germain Derycke  Belgium02h 54' 18"+  00:14:33 =33,391  km/h

31  Luciano Pezzi  Italy02h 54' 27"+  00:14:42 =33,362  km/h

32  Jean Gueguen  France02h 55' 07"+  00:15:22 =33,235  km/h

33  Edouard Muller  France02h 55' 09"+  00:15:24 =33,229  km/h

34  Adolphe Deledda  Est-Sud Est02h 55' 13"+  00:15:28 =33,216  km/h

35  Willy Kemp  Luxembourg02h 55' 34"+  00:15:49 =33,150  km/h

36  Armand Baeyens  Belgium02h 55' 38"+  00:15:53 =33,137  km/h

37  Dalmácio Langarica  Spain02h 55' 57"+  00:16:12 =33,078  km/h

38  Virgilio Salimbeni  Italy02h 56' 19"+  00:16:34 =33,009  km/h

39  Lucien Teisseire  France02h 56' 33"+  00:16:48 =32,965  km/h

40  Franco Franchi  Italy02h 56' 52"+  00:17:07 =32,906  km/h

41  Gino Sciardis  Île-de-France02h 57' 04"+  00:17:19 =32,869  km/h

42  Jean Baldassari  France02h 57' 15"+  00:17:30 =32,835  km/h

43  Alois Vansteenkiste  Belgium02h 57' 23"+  00:17:38 =32,810  km/h

44  Jean-Louis Carle  Paris02h 57' 25"+  00:17:40 =32,804  km/h

45  Eduard Van Ende  Belgium02h 57' 49"+  00:18:04 =32,730  km/h

46  Georges Aeschlimann  Switzerland02h 57' 51"+  00:18:06 =32,724  km/h

47  Louis Deprez  Île-de-France02h 58' 24"+  00:18:39 =32,623  km/h

48  Louis Caput  Paris02h 59' 12"+  00:19:27 =32,478  km/h

49  Jean-Marie Goasmat  Ouest-Sud Ouest02h 59' 16"+  00:19:31 =32,466  km/h

50  Roger Leveque  Ouest-Sud Ouest02h 59' 25"+  00:19:40 =32,438  km/h

51  André Rosseel  Belgium02h 59' 27"+  00:19:42 =32,432  km/h

52  Manuel Rodriguez  Spain02h 59' 31"+  00:19:46 =32,420  km/h

52  André Labeylie  Île-de-France02h 59' 31"+  00:19:46 =32,420  km/h

54  Marcel Huber  Switzerland02h 59' 47"+  00:20:02 =32,372  km/h

55  Pierre Brambilla  Est-Sud Est02h 59' 49"+  00:20:04 =32,366  km/h

56  Gottfried Weilenmann  Switzerland02h 59' 52"+  00:20:07 =32,357  km/h

57  Vincent Vitetta  Est-Sud Est03h 00' 03"+  00:20:18 =32,324  km/h

58  Bernard Gauthier  France03h 00' 24"+  00:20:39 =32,262  km/h

59  Alois De Hertog  Belgium03h 00' 27"+  00:20:42 =32,253  km/h

60  Paul Giguet  Est-Sud Est03h 00' 36"+  00:20:51 =32,226  km/h

61  Jean Mayen  North Africa03h 00' 38"+  00:20:53 =32,220  km/h

62  Emile Baffert  Est-Sud Est03h 01' 10"+  00:21:25 =32,125  km/h

63  Abdel-Kader Zaaf  North Africa03h 01' 27"+  00:21:42 =32,075  km/h

64  Angelo Colinelli  Est-Sud Est03h 01' 34"+  00:21:49 =32,054  km/h

66  Francisco Masip  Spain03h 03' 24"+  00:23:39 =31,734  km/h

65  Jean Robic  Paris03h 12' 38"+  00:32:53 =30,213  km/h


Withdrawls: 3
 RiderTeamReason
44   Jean-Apotre Lazarides FranceExceeded time limit
47   Raoul Remy FranceExceeded time limit
72   José Serra Gil SpainExceeded time limit
Todays birthdays.

1869 • Adolphe Dorion
1884 • Achille Germain
1886 • Emile Eigeldinger
1896 • Andre Léger
1907 • Frans Dictus
1921 • Alberto Ghirardi
1934 • Joseph Planckaert
1945 • Leif Mortensen
1952 • Alex Van Linden
1960 • Roberto Bressan
1960 • Bernard Chesneau
1962 • Paul Watson
1963 • Juan Rozas
1965 • Jean-Pierre Heynderickx
1967 • José-Manuel Oliveira
1970 • Wilfried Nelissen
1980 • Nick Nuyens
1996 • Jai Hindley

 

Optimized for Chrome - Edge
and Opera browsers.